PO-34
1 25520U 98064B 08206.55922470 .00000388 00000-0 93189-5 0 435
2 25520 028.4601 288.5730 0005140 330.5538 029.4772 15.17212734538849
ISS
1 25544U 98067A 08206.64825231 -.00006764 00000-0 -44576-4 0 9217
2 25544 051.6441 183.7417 0009508 348.9882 345.6594 15.72647713554427
CO-58
1 28895U 05043F 08206.41098133 .00000077 00000-0 25797-4 0 774
2 28895 098.0930 099.5308 0016875 295.1459 064.7982 14.59684714145914
NCUBE2
1 28897U 05043H 08206.64531386 .00000083 00000-0 26913-4 0 6081
2 28897 098.0916 099.6873 0016425 296.3536 063.5986 14.59856541138235
FCAL
1 29667U 06055J 08146.34060426 .11864717 12752-4 73624-4 0 9790
2 29667 051.6107 065.3702 0009039 260.8350 099.5042 16.53464210 82911
FALCON
1 30776U 07006E 08205.57780886 .00000193 00000-0 17108-4 0 03774
2 30776 035.4349 292.7875 0002076 322.8256 037.2316 15.03022831075623
MAST
1 31126U 07012K 08206.21008670 .00000172 00000-0 49791-4 0 3823
2 31126 098.0357 269.1627 0094116 216.5860 142.8917 14.53436814 67395
CAPE1
1 31130U 07012P 08206.88713016 .00000070 00000-0 27200-4 0 3613
2 31130 098.0368 268.7344 0102143 217.3952 142.0098 14.51978528 67195
CUTE1-7
1 32785U 08021C 08205.39167058 .00000075 00000-0 16521-4 0 01140
2 32785 097.9926 265.2221 0015595 022.8456 337.3461 14.81377216012764
COMPASS
1 32787U 08021E 08206.80702673 .00000376 00000-0 54779-4 0 1014
2 32787 097.9875 266.5904 0016284 019.9212 340.2636 14.81438471 12975
AAUSAT2
1 32788U 08021F 08206.53047195 .00000431 00000-0 61697-4 0 1015
2 32788 097.9874 266.3269 0016315 023.4283 336.7684 14.81547904 12931
DO-64
1 32789U 08021G 08206.80799642 .00000379 00000-0 55211-4 0 1103
2 32789 097.9901 266.6211 0016266 019.4263 340.7565 14.81435468 12979
SEEDS
1 32791U 08021J 08205.39676872 .00000132 00000-0 23789-4 0 01065
2 32791 097.9891 265.1971 0016913 021.5871 338.6062 14.81294363012734
CANX-2
1 32797U 08021L 08205.10275194 .00001534 00000-0 20042-3 0 00527
2 32797 097.9951 264.9878 0017301 031.7907 328.4306 14.81861567011402
RS-30
1 32953U 08025A 08205.71086324 .00000010 00000-0 00000-0 0 00658
2 32953 082.5014 100.8813 0018347 171.9573 188.1798 12.42996662007580
